Probability
34 40 46 49 49 47 45 43 37 25 15 9 6 5 3 1 0 0 1 2 3 5 5 4 4 2 1 0 0 0 0 0 0 0 0 0 0 0 0 0 0 0 0
39 45 50 52 53 52 50 49 42 30 19 12 7 5 3 1 0 1 2 3 4 6 6 5 4 3 1 1 0 0 0 0 0 0 0 0 0 0 0 0 0 0 0
47 52 56 57 58 56 53 52 45 34 25 17 11 7 4 2 1 1 3 3 3 6 7 7 6 4 3 2 1 1 0 0 0 0 0 0 0 0 0 0 0 0 0
52 56 60 62 61 57 52 49 44 37 30 25 19 12 7 3 1 1 2 2 3 5 7 8 6 4 2 2 2 1 0 0 0 0 0 0 0 0 0 0 0 0 0
56 59 63 65 64 58 53 47 42 38 34 31 25 17 10 5 3 2 2 3 4 4 5 6 4 2 1 1 1 1 0 0 0 0 0 0 0 0 0 0 0 0 0
58 62 65 66 65 61 55 48 41 38 37 34 30 21 13 9 7 5 4 4 5 4 3 3 2 1 0 0 0 0 0 0 0 0 0 0 0 0 0 0 0 0 0
59 63 67 68 66 64 58 49 42 39 37 36 32 25 17 13 11 8 5 4 4 4 3 3 1 0 0 0 0 0 0 0 0 0 0 0 0 0 0 0 0 0 0
56 61 66 68 67 64 58 50 43 40 38 36 31 26 21 18 14 9 6 4 4 4 3 2 1 0 0 0 0 0 0 0 0 0 0 0 0 0 0 0 0 0 0
50 56 62 64 63 61 57 50 44 40 38 36 31 26 24 21 17 11 6 4 3 3 2 1 0 0 0 0 0 0 0 1 1 1 0 0 0 0 0 0 0 0 0
47 51 57 58 57 56 55 52 48 43 39 36 31 26 23 21 18 13 9 5 3 1 1 0 0 0 1 1 1 1 2 2 2 2 1 0 0 0 0 0 0 0 0
49 53 55 54 53 54 54 53 51 47 41 36 31 26 23 21 18 14 12 8 3 1 0 1 1 1 2 2 2 3 3 3 3 3 2 1 1 0 0 0 0 0 0
55 60 61 55 53 54 53 53 53 50 44 39 34 30 26 22 17 14 12 10 6 3 2 2 2 3 3 4 4 4 4 3 3 3 3 3 2 1 0 0 0 0 0
59 62 62 55 51 52 50 50 51 50 47 44 40 35 30 24 18 14 11 10 8 6 4 3 3 3 3 4 4 4 3 3 3 3 3 3 3 1 1 0 0 0 0
56 56 54 50 49 48 46 46 48 48 46 45 41 36 30 25 21 16 11 9 8 7 5 3 3 2 3 4 4 3 3 3 3 3 3 3 3 3 2 1 0 0 0
51 50 49 48 49 48 46 46 47 45 42 41 38 34 30 26 23 18 11 8 7 6 5 3 3 3 3 3 3 3 3 3 3 3 3 3 3 3 2 1 0 0 0
48 49 50 50 50 49 46 45 44 41 38 37 34 30 27 26 23 17 11 8 6 4 4 4 4 4 4 3 3 3 3 3 3 3 3 3 3 2 1 0 0 0 0
48 50 50 47 44 43 42 40 38 34 33 31 27 23 22 21 19 14 10 8 6 4 4 5 6 6 5 4 3 2 3 3 3 3 3 3 2 2 2 1 0 0 0
45 46 45 40 37 36 35 33 30 27 25 22 18 17 16 15 13 12 10 8 7 7 6 6 6 6 6 4 2 2 2 3 3 3 3 3 3 3 3 2 1 0 1
39 41 41 37 34 32 30 28 25 22 18 14 12 12 13 12 11 10 9 9 9 8 7 6 6 6 6 4 2 1 2 3 3 3 3 3 3 3 3 3 2 2 2
39 40 39 36 32 28 25 23 20 18 16 13 12 13 13 12 10 9 9 9 9 8 7 6 6 6 5 3 2 1 2 3 3 3 3 3 3 3 2 3 3 3 2
42 40 37 33 29 25 20 17 15 15 15 14 14 14 14 13 10 9 9 8 8 7 7 6 6 5 4 3 2 1 2 2 2 2 2 2 2 1 1 1 2 2 1
43 39 33 27 23 20 17 14 13 14 14 14 13 13 13 11 10 9 8 7 6 6 6 6 6 4 3 2 2 1 1 1 1 1 1 1 1 0 0 0 1 1 0
40 35 28 21 17 14 13 12 11 11 11 11 10 10 10 9 7 6 5 4 4 4 5 6 4 2 1 1 1 0 0 0 0 0 0 0 0 0 0 0 0 0 0
32 28 21 16 12 9 9 9 8 8 8 8 8 7 7 6 5 4 3 3 3 3 4 4 3 1 0 0 0 0 0 0 0 0 0 0 0 0 0 0 0 0 0
25 21 16 12 9 7 7 7 7 6 6 6 6 6 6 5 4 3 3 3 3 3 3 3 2 1 0 0 0 0 0 0 0 0 0 0 0 0 0 0 0 0 0
22 20 15 11 8 7 7 7 7 6 6 6 6 6 5 4 4 3 3 3 3 3 3 3 2 1 0 0 0 0 0 0 0 0 0 0 0 0 0 0 0 0 0
Wind_Speed
11 11 12 13 11 10 10 10 9 8 6 4 4 3 3 3 3 3 5 5 5 5 5 3 3 3 3 3 3 2 2 1 1 1 2 3 3 3 3 3 3 5 6
10 12 12 12 12 12 11 11 10 9 8 5 4 3 3 3 3 3 4 6 6 5 5 5 3 3 3 3 3 2 2 1 1 2 1 2 4 3 3 2 3 4 3
17 15 15 14 13 13 13 11 10 9 8 6 4 2 2 1 1 3 3 5 5 5 4 5 4 4 4 3 3 3 3 2 2 2 3 2 3 3 3 2 2 2 2
13 14 15 15 15 14 12 11 10 9 8 8 6 6 5 4 5 4 4 4 5 5 5 5 5 4 3 4 4 4 3 3 2 2 2 3 3 2 3 3 2 2 2
16 16 16 16 14 13 12 10 10 9 8 8 8 7 5 4 3 3 4 4 4 5 5 5 4 4 4 4 4 3 3 3 3 3 2 2 2 2 2 3 3 2 2
14 14 12 11 10 10 10 10 10 9 9 9 8 8 8 6 5 4 4 4 3 3 4 4 4 4 4 4 4 4 4 3 3 3 3 3 2 3 3 3 3 3 2
14 13 12 12 12 12 11 10 10 9 9 9 8 8 7 7 7 5 5 4 3 3 4 4 4 4 4 4 4 3 4 4 4 4 3 3 3 3 3 3 2 2 2
13 14 14 14 13 13 11 10 11 10 9 9 8 7 7 5 4 5 4 4 4 4 4 5 5 4 4 4 3 3 4 3 4 4 4 2 3 2 3 3 2 2 2
13 14 14 14 13 13 13 12 12 10 9 9 8 6 6 6 5 4 4 4 4 4 4 5 4 4 4 4 3 3 3 3 3 3 3 2 2 2 2 2 2 3 2
10 11 12 13 12 11 10 9 9 9 8 8 7 6 6 5 4 4 4 4 3 3 3 3 4 4 4 3 3 2 2 2 2 2 2 3 2 2 1 2 2 2 3
9 9 9 9 8 7 7 7 8 7 7 8 6 5 4 4 4 3 4 4 3 3 3 3 3 3 3 2 2 2 1 1 1 1 1 1 1 1 1 1 1 1 2
8 9 9 8 8 8 7 7 7 7 7 7 6 5 4 4 4 3 3 3 2 2 2 3 3 3 2 2 2 2 1 1 1 0 0 1 0 1 0 0 0 0 1
7 7 7 7 7 8 8 7 7 7 6 5 5 5 4 3 3 3 2 2 2 2 2 2 3 2 2 2 2 2 1 1 1 1 1 0 1 1 1 1 1 1 1
8 7 6 6 7 7 7 6 6 6 6 6 6 5 4 4 3 3 3 3 3 3 3 3 3 3 2 2 1 2 2 2 2 2 2 2 2 1 1 2 2 2 3
8 7 6 6 6 6 6 6 5 5 6 6 6 5 4 4 4 3 3 4 4 4 4 4 3 3 3 2 2 2 2 3 3 3 3 4 5 5 3 3 2 3 3
8 7 7 7 7 7 7 6 6 5 6 6 5 5 5 5 5 4 4 5 5 4 4 4 4 4 3 4 5 4 3 4 4 4 4 5 7 9 10 9 7 5 4
7 7 6 6 6 7 7 7 6 6 6 6 5 5 6 6 6 6 6 6 4 5 5 5 5 4 4 6 6 7 5 5 4 4 4 4 5 6 6 8 10 9 9
7 6 6 5 6 6 7 7 7 7 7 6 6 6 6 7 6 6 6 5 4 5 5 5 4 4 5 6 7 8 6 6 5 5 5 5 4 5 5 6 7 6 5
8 6 6 7 7 8 7 8 7 7 7 7 6 6 6 7 7 7 6 5 6 6 5 4 4 4 4 6 7 7 5 5 6 5 6 5 5 7 7 7 6 6 5
9 8 8 9 9 7 8 9 7 7 6 6 6 6 6 7 7 7 6 5 6 6 5 5 5 5 4 6 7 6 4 5 5 5 5 8 7 8 7 6 5 5 3
10 10 10 8 8 7 9 9 7 6 6 6 7 7 7 7 7 6 6 6 6 6 6 6 5 5 5 6 7 7 5 5 5 4 4 4 8 9 9 7 5 4 3
10 10 10 8 7 7 9 9 7 6 7 7 8 7 7 6 6 7 6 6 6 6 5 5 5 5 5 6 7 9 8 6 6 4 3 4 9 9 9 7 7 8 6
9 9 10 9 7 7 8 10 7 7 8 8 8 7 7 6 5 6 6 5 4 4 4 4 4 4 4 5 9 10 10 9 6 4 6 7 9 8 7 9 9 6 4
9 9 10 9 7 6 8 9 8 8 8 8 7 7 7 7 6 5 4 4 4 4 4 4 4 3 3 3 3 4 5 7 7 5 6 9 9 7 6 6 5 4 3
7 8 9 9 8 7 8 8 8 8 9 8 7 7 7 7 6 6 5 4 3 3 4 3 4 4 3 1 3 4 4 4 4 4 4 4 4 4 4 4 4 3 4
8 8 8 8 8 8 8 7 7 8 9 8 7 5 5 5 5 6 6 11 8 8 7 6 5 4 5 6 7 8 9 9 8 6 4 3 3 3 3 3 3 3 3
Wind_Direction
179 168 168 169 168 168 167 167 168 172 163 158 159 158 174 181 184 191 191 188 186 181 174 182 185 175 176 188 183 177 194 219 184 65 324 310 280 250 240 227 213 213 213
170 169 168 173 176 176 175 172 174 175 175 176 171 167 165 181 189 193 194 193 190 188 186 180 187 188 184 192 191 176 174 230 172 150 118 327 327 308 261 243 221 217 212
178 176 174 180 178 181 181 180 178 178 179 174 159 148 129 138 187 200 204 204 197 195 194 190 189 196 188 195 201 188 178 207 238 176 158 175 244 296 309 278 246 227 217
181 179 176 180 184 185 182 177 176 179 182 176 174 175 180 193 207 202 200 204 202 200 200 197 195 196 196 199 209 198 188 184 225 241 209 192 179 191 296 311 290 257 237
182 183 183 184 184 180 178 178 177 181 185 186 184 184 194 203 203 196 198 202 206 206 204 199 196 197 199 206 213 205 200 193 202 211 216 223 212 193 197 271 295 301 263
181 183 183 176 174 173 176 178 181 188 188 189 187 190 195 198 197 201 200 205 204 206 207 200 199 203 203 206 210 212 212 212 212 214 204 195 199 208 199 230 258 270 275
177 177 175 174 175 176 179 180 183 192 190 190 192 193 195 193 197 199 198 197 200 208 216 212 207 209 212 214 210 214 224 217 218 221 220 216 216 203 195 209 242 256 277
180 182 180 178 181 179 177 182 185 193 194 194 195 193 191 193 201 201 193 194 202 213 212 211 213 216 212 218 209 218 228 225 226 233 226 224 230 213 201 196 198 253 288
180 180 178 179 180 178 179 186 188 191 195 196 193 193 193 193 197 196 189 195 203 209 207 208 213 216 213 212 204 219 233 226 223 227 227 230 235 224 219 201 187 188 236
172 174 175 178 180 179 177 176 185 192 193 193 196 197 197 196 192 185 193 197 200 202 190 202 207 209 208 200 191 201 215 196 219 215 222 236 238 222 216 213 204 188 195
160 161 166 168 165 162 163 171 183 185 184 186 188 191 190 185 180 187 202 197 188 184 184 193 195 192 192 184 170 185 183 177 223 239 202 232 209 194 231 228 209 193 170
147 149 147 147 149 153 167 172 183 183 185 181 176 181 179 175 180 192 198 185 173 172 174 170 164 166 163 157 162 173 179 176 184 234 144 237 133 85 42 48 97 165 157
125 129 131 136 147 157 162 172 177 175 171 165 164 165 160 160 167 175 168 145 134 127 120 124 124 128 132 131 145 150 148 137 135 124 104 74 93 88 74 85 81 84 84
123 123 128 141 151 153 151 153 155 153 149 150 156 157 155 155 155 146 126 117 113 106 98 99 110 122 124 121 128 132 132 107 91 85 87 82 87 111 118 95 93 98 90
128 135 141 142 140 137 137 139 136 137 139 142 148 147 133 124 119 115 112 104 101 100 97 95 93 100 107 105 115 122 126 110 89 67 60 67 73 72 77 85 91 102 100
141 144 143 141 142 141 136 130 128 131 134 134 135 124 116 114 106 102 99 94 94 90 85 83 84 79 82 85 94 103 97 93 92 82 68 67 65 67 68 69 70 81 100
138 142 144 141 141 137 134 128 127 121 116 115 115 113 116 113 110 111 103 99 97 92 85 80 81 78 70 75 89 98 95 90 89 89 84 77 67 63 72 67 62 59 65
142 142 141 134 124 121 116 114 113 112 111 108 105 106 111 115 111 106 103 104 102 93 88 82 80 81 72 82 92 93 87 86 84 81 84 88 73 67 76 78 66 56 50
144 137 131 126 116 114 114 111 108 108 109 111 110 110 112 111 109 108 107 105 99 90 85 83 79 81 72 79 89 96 91 85 76 72 75 84 81 70 78 83 77 62 45
125 121 117 112 111 115 115 109 109 108 109 112 110 108 108 109 111 110 106 100 98 94 89 77 70 73 72 78 85 96 97 91 82 70 62 67 77 73 73 83 86 77 51
122 120 118 117 120 120 114 111 109 109 110 106 102 101 102 105 107 106 102 102 99 93 85 77 64 57 61 75 82 88 93 100 93 81 66 58 70 72 70 76 81 89 82
123 122 119 115 113 115 115 112 113 113 108 105 102 100 99 103 106 106 102 101 104 99 91 83 69 49 48 62 75 82 84 93 97 94 81 74 74 72 70 70 70 72 69
125 121 121 117 113 113 117 120 121 117 110 104 101 98 91 87 95 106 109 105 102 103 98 94 87 67 53 59 72 79 82 85 90 90 88 81 75 70 64 62 64 66 64
127 126 124 123 122 119 115 121 122 117 111 106 100 97 94 85 77 77 87 100 104 110 111 108 105 93 72 61 59 70 79 79 79 79 76 72 66 62 57 51 46 48 64
127 129 130 129 130 126 120 122 123 120 114 110 104 97 94 96 84 70 59 79 79 124 133 135 136 126 113 107 112 110 100 101 103 96 73 60 56 52 45 41 37 37 43
131 128 127 129 131 128 126 126 127 128 125 120 116 113 111 106 104 101 79 54 64 76 92 107 118 102 116 121 106 100 101 101 104 91 81 71 69 69 60 55 39 33 36